Hourly Data Report for July 10, 2021

CARIBOU POINT (AUT)
NOVA SCOTIA
Current Station Operator: ECCC - MSC

45°46'00.000" N
62°41'00.000" W
2.40 m
8200774
71415
WBK

Download Data

Hourly Data (July 2021)
Hourly Data Report for July 10, 2021
TIME
LST
Temp Definition
°C
Dew Point Definition
°C
Rel Hum Definition
%
Precip. Amount Definition
mm

Wind Dir Definition
10's deg

Wind Spd Definition
km/h
Visibility Definition
km
Stn Press Definition
kPa
Hmdx Definition


Wind Chill Definition


Weather Definition


00:00 21.5 19.1 87 0.0 17 50   100.76 28   LegendNANA
01:00 21.1 19.6 91 0.0 17 44   100.57 28   LegendNANA
02:00 21.0 19.8 93 0.0 18 47   100.34 28   LegendNANA
03:00 20.6 17.9 84 0.2 20 35   100.25 27   LegendNANA
04:00 19.4 17.3 88 0.0 20 22   100.28     LegendNANA
05:00 18.4 17.0 91 0.0 21 17   100.30     LegendNANA
06:00 19.0 16.8 88 0.0 24 14   100.43     LegendNANA
07:00 18.4 16.1 87 0.0 27 25   100.61     LegendNANA
08:00 15.8 14.8 94 0.0 29 55   100.94     LegendNANA
09:00 14.8 14.3 97 0.2 29 45   101.21     LegendNANA
10:00 14.7 13.9 95 0.2 32 43   101.29     LegendNANA
11:00 16.3 14.6 90 0.0 30 19   101.47     LegendNANA
12:00 17.1 14.1 83 0.0 28 20   101.53     LegendNANA
13:00 17.0 14.6 86 0.0 31 15   101.56     LegendNANA
14:00 17.8 15.1 84 0.0 31 10   101.58     LegendNANA
15:00 17.6 14.6 83 0.0 36 8   101.54     LegendNANA
16:00 18.0 14.8 82 0.0 35 6   101.55     LegendNANA
17:00 17.5 14.2 81 0.0 10 5   101.55     LegendNANA
18:00 16.7 14.6 88 0.0 8 10   101.56     LegendNANA
19:00 16.2 14.6 90 0.0 8 12   101.60     LegendNANA
20:00 15.5 14.0 91 0.0 8 20   101.56     LegendNANA
21:00 15.3 13.4 89 0.0 9 23   101.59     LegendNANA
22:00 15.2 13.5 89 0.0 7 19   101.59     LegendNANA
23:00 15.4 13.8 90 0.0 9 15   101.58     LegendNANA

Notes on Data Quality.

Legend

  • E = Estimated
  • M = Missing
  • NA = Not Available*
  • [empty] = Indicates an unobserved value
Date modified: